Weather History for KHAO - November, 2013

Change the Weather History Date:

Friday, November 1, 2013

  Actual Average (KCVG) Record (KCVG)
Temperature  
Mean Temperature 56 °F 51 °F  
Max Temperature 66 °F 61 °F 80 °F (1982)
Min Temperature 48 °F 41 °F 25 °F (1962)
Degree Days  
Heating Degree Days 9 14  
Month to date heating degree days 14  
Since 1 July heating degree days 376  
Cooling Degree Days 0 0  
Month to date cooling degree days 0  
Year to date cooling degree days 1121  
Growing Degree Days 6 (Base 50)    
Moisture  
Dew Point 47 °F    
Average Humidity 72    
Maximum Humidity 94    
Minimum Humidity 43    
Precipitation  
Precipitation 0.02 in 0.12 in 1.65 in (1897)
Month to date precipitation 0.12  
Year to date precipitation 35.84  
Snow  
Snow 0.00 in 0.00 in 0.00 in ()
Month to date snowfall 0.0  
Since 1 July snowfall 0.4  
Since 1 September snowfall 0.4  
Snow Depth -    
Sea Level Pressure  
Sea Level Pressure 29.65 in    
Wind  
Wind Speed 8 mph (WSW)    
Max Wind Speed 14 mph    
Max Gust Speed 25 mph    
Visibility 10 miles    
Events Rain    
T = Trace of Precipitation, MM = Missing Value Source: NWS Daily Summary

Daily Weather History Graph

Daily Weather History Graph

Search for Another Location

Airport or City:

Trip Planner

Search our weather history database for the weather conditions in past years. The results will help you decide how hot, cold, wet, or windy it might be!

Date:

Astronomy

Nov. 01, 2013 Rise Set
Actual Time 8:06 AM EDT 6:36 PM EDT
Civil Twilight 7:38 AM EDT 7:04 PM EDT
Nautical Twilight 7:06 AM EDT 7:35 PM EDT
Astronomical Twilight 6:35 AM EDT 8:07 PM EDT
Moon 5:58 AM EDT (11/1) 5:28 PM EDT (11/1)
Length of Visible Light 11h 25m
Length of Day
10h 30m
Waning Crescent, 4% of the Moon is Illuminated
Nov 1
Waning Crescent
Nov 3
New
Nov 10
First Quarter
Nov 17
Full
Nov 25
Last Quarter

Hourly Weather History & Observations

Time (EDT) Temp. Dew Point Humidity Pressure Visibility Wind Dir Wind Speed Gust Speed Precip Events Conditions
12:53 AM 57.0 °F 55.0 °F 93% 29.47 in 10.0 mi WSW 10.4 mph 16.1 mph 0.02 in   Overcast
1:53 AM 57.0 °F 55.0 °F 93% 29.47 in 10.0 mi SSW 5.8 mph - N/A   Mostly Cloudy
2:45 AM 57.2 °F 55.4 °F 94% 29.50 in 10.0 mi WSW 6.9 mph - 0.00 in Rain Light Rain
2:53 AM 57.9 °F 55.0 °F 90% 29.50 in 10.0 mi WSW 9.2 mph - 0.00 in   Overcast
3:53 AM 57.0 °F 53.1 °F 87% 29.55 in 10.0 mi West 5.8 mph - N/A   Overcast
4:20 AM 55.4 °F 50.0 °F 82% 29.58 in 10.0 mi WSW 12.7 mph 25.3 mph N/A   Mostly Cloudy
4:43 AM 53.6 °F 48.2 °F 82% 29.60 in 10.0 mi WSW 9.2 mph - N/A   Mostly Cloudy
4:53 AM 54.0 °F 48.9 °F 83% 29.60 in 10.0 mi WSW 8.1 mph - N/A   Mostly Cloudy
5:09 AM 53.6 °F 46.4 °F 77% 29.60 in 10.0 mi West 11.5 mph 19.6 mph N/A   Scattered Clouds
5:53 AM 51.1 °F 46.9 °F 86% 29.63 in 10.0 mi WSW 4.6 mph - N/A   Scattered Clouds
6:00 AM 51.8 °F 46.4 °F 82% 29.64 in 10.0 mi SW 4.6 mph - N/A   Mostly Cloudy
6:26 AM 51.8 °F 46.4 °F 82% 29.65 in 10.0 mi WSW 5.8 mph - N/A   Scattered Clouds
6:53 AM 51.1 °F 46.0 °F 83% 29.65 in 10.0 mi West 9.2 mph - N/A   Partly Cloudy
7:53 AM 48.9 °F 45.0 °F 86% 29.68 in 10.0 mi WSW 5.8 mph - N/A   Clear
8:53 AM 50.0 °F 46.0 °F 86% 29.70 in 10.0 mi SW 8.1 mph - N/A   Clear
9:53 AM 53.1 °F 46.9 °F 80% 29.72 in 10.0 mi SW 5.8 mph 17.3 mph N/A   Partly Cloudy
10:49 AM 55.4 °F 46.4 °F 72% 29.72 in 10.0 mi SSW 11.5 mph 21.9 mph N/A   Mostly Cloudy
10:53 AM 55.9 °F 46.9 °F 72% 29.72 in 10.0 mi SSW 13.8 mph 21.9 mph N/A   Mostly Cloudy
11:30 AM 57.2 °F 46.4 °F 67% 29.72 in 10.0 mi SSW 8.1 mph 17.3 mph N/A   Scattered Clouds
11:53 AM 60.1 °F 48.0 °F 64% 29.71 in 10.0 mi SW 8.1 mph 20.7 mph N/A   Partly Cloudy
12:53 PM 63.0 °F 46.9 °F 56% 29.70 in 10.0 mi WSW 9.2 mph 18.4 mph N/A   Scattered Clouds
1:53 PM 63.0 °F 46.0 °F 54% 29.68 in 10.0 mi SW 13.8 mph 23.0 mph N/A   Mostly Cloudy
2:53 PM 64.0 °F 44.1 °F 48% 29.66 in 10.0 mi SW 8.1 mph - N/A   Mostly Cloudy
3:53 PM 63.0 °F 42.1 °F 46% 29.66 in 10.0 mi WSW 10.4 mph 24.2 mph N/A   Scattered Clouds
4:53 PM 64.0 °F 41.0 °F 43% 29.66 in 10.0 mi WSW 9.2 mph 20.7 mph N/A   Mostly Cloudy
5:53 PM 62.1 °F 42.1 °F 48% 29.67 in 10.0 mi WSW 5.8 mph - N/A   Overcast
6:53 PM 57.9 °F 43.0 °F 58% 29.69 in 10.0 mi West 3.5 mph - N/A   Overcast
7:53 PM 57.9 °F 44.1 °F 60% 29.72 in 10.0 mi WNW 8.1 mph - N/A   Overcast
8:53 PM 55.9 °F 44.1 °F 64% 29.73 in 10.0 mi West 3.5 mph - N/A   Overcast
9:53 PM 55.9 °F 43.0 °F 62% 29.75 in 10.0 mi West 4.6 mph - N/A   Overcast
10:53 PM 54.0 °F 43.0 °F 66% 29.76 in 10.0 mi Variable 3.5 mph - N/A   Overcast
11:53 PM 54.0 °F 39.9 °F 59% 29.78 in 10.0 mi WNW 11.5 mph 17.3 mph N/A   Overcast